| time (UTC) | temp F | wind direction | speed MPH | gust MPH | rain 1hr in | rain 24hr in | rain mn in | humidity % | barometer mb |
| 20260506210359 | 61 | 311 | 0.0 | 2.0 | 0.00 | 0.00 | 0.00 | 64 | 1016.9 |
| 20260506203359 | 60 | 322 | 0.0 | 0.0 | 0.00 | 0.00 | 0.00 | 64 | 1016.4 |
| 20260506200359 | 61 | 307 | 0.0 | 1.0 | 0.00 | 0.00 | 0.00 | 57 | 1016.3 |
| 20260506193402 | 60 | 197 | 0.0 | 0.0 | 0.00 | 0.00 | 0.00 | 58 | 1016.1 |
| 20260506190359 | 60 | 44 | 0.0 | 0.0 | 0.00 | 0.00 | 0.00 | 51 | 1016.0 |
| 20260506183359 | 57 | 266 | 0.0 | 0.0 | 0.00 | 0.00 | 0.00 | 54 | 1015.8 |
| 20260506180359 | 56 | 312 | 0.0 | 0.0 | 0.00 | 0.00 | 0.00 | 56 | 1015.4 |
| 20260506173359 | 53 | 328 | 0.0 | 1.0 | 0.00 | 0.00 | 0.00 | 59 | 1014.7 |
| 20260506170359 | 51 | 329 | 0.0 | 0.0 | 0.00 | 0.00 | 0.00 | 72 | 1014.4 |
| 20260506163359 | 47 | 294 | 0.0 | 1.0 | 0.00 | 0.01 | 0.00 | 94 | 1014.2 |
| 20260506160359 | 45 | 271 | 0.0 | 0.0 | 0.00 | 0.03 | 0.00 | 94 | 1013.9 |
| 20260506153359 | 44 | 325 | 0.0 | 0.0 | 0.00 | 0.04 | 0.00 | 94 | 1013.6 |
| 20260506150359 | 43 | 293 | 0.0 | 0.0 | 0.00 | 0.05 | 0.00 | 94 | 1013.5 |
| 20260506143359 | 41 | 359 | 0.0 | 0.0 | 0.00 | 0.07 | 0.00 | 94 | 1013.2 |
| 20260506140359 | 40 | 347 | 0.0 | 0.0 | 0.00 | 0.09 | 0.00 | 95 | 1012.9 |
| 20260506133359 | 39 | 37 | 0.0 | 0.0 | 0.00 | 0.12 | 0.00 | 95 | 1012.7 |
| 20260506130359 | 38 | 24 | 0.0 | 0.0 | 0.00 | 0.16 | 0.00 | 95 | 1012.6 |
| 20260506123359 | 38 | 30 | 0.0 | 0.0 | 0.00 | 0.18 | 0.00 | 95 | 1012.4 |
| 20260506120402 | 37 | 32 | 0.0 | 0.0 | 0.00 | 0.19 | 0.00 | 95 | 1012.3 |
| 20260506113359 | 37 | 30 | 0.0 | 0.0 | 0.00 | 0.19 | 0.00 | 95 | 1012.1 |
| 20260506110359 | 38 | 37 | 0.0 | 0.0 | 0.00 | 0.19 | 0.00 | 95 | 1012.1 |
| 20260506103359 | 38 | 41 | 0.0 | 0.0 | 0.00 | 0.19 | 0.00 | 95 | 1012.1 |
| 20260506100359 | 37 | 349 | 0.0 | 0.0 | 0.00 | 0.19 | 0.00 | 95 | 1012.1 |
| 20260506093359 | 37 | 343 | 0.0 | 0.0 | 0.00 | 0.19 | 0.00 | 95 | 1012.1 |
| 20260506090359 | 36 | 243 | 0.0 | 0.0 | 0.00 | 0.19 | 0.00 | 95 | 1012.4 |
| 20260506083359 | 35 | 355 | 0.0 | 0.0 | 0.00 | 0.19 | 0.00 | 95 | 1012.7 |
| 20260506080359 | 35 | 287 | 0.0 | 0.0 | 0.00 | 0.19 | 0.00 | 95 | 1012.8 |
| 20260506073359 | 36 | 287 | 0.0 | 0.0 | 0.00 | 0.20 | 0.00 | 95 | 1013.2 |
| 20260506070359 | 36 | 229 | 0.0 | 0.0 | 0.00 | 0.20 | 0.00 | 95 | 1013.2 |
| 20260506060359 | 37 | 145 | 0.0 | 0.0 | 0.00 | 0.20 | 0.00 | 95 | 1012.6 |
| 20260506050402 | 37 | 111 | 0.0 | 0.0 | 0.00 | 0.20 | 0.00 | 95 | 1012.1 |
| 20260506043359 | 38 | 136 | 0.0 | 0.0 | 0.00 | 0.20 | 0.00 | 95 | 1011.5 |
| 20260506040402 | 38 | 136 | 0.0 | 0.0 | 0.00 | 0.20 | 0.00 | 95 | 1011.3 |
| 20260506033402 | 38 | 141 | 0.0 | 0.0 | 0.00 | 0.20 | 0.00 | 95 | 1010.8 |
| 20260506030359 | 38 | 141 | 0.0 | 0.0 | 0.00 | 0.21 | 0.00 | 95 | 1010.2 |
| 20260506023359 | 38 | 141 | 0.0 | 0.0 | 0.00 | 0.21 | 0.00 | 95 | 1009.9 |
| 20260506020359 | 39 | 141 | 0.0 | 0.0 | 0.00 | 0.21 | 0.00 | 95 | 1009.5 |
| 20260506013359 | 39 | 139 | 0.0 | 0.0 | 0.00 | 0.21 | 0.00 | 95 | 1009.2 |
| 20260506010359 | 39 | 149 | 0.0 | 0.0 | 0.00 | 0.21 | 0.00 | 95 | 1009.1 |
| 20260506003359 | 39 | 163 | 0.0 | 0.0 | 0.00 | 0.21 | 0.00 | 95 | 1009.1 |
| 20260506000401 | 39 | 162 | 0.0 | 0.0 | 0.00 | 0.21 | 0.00 | 95 | 1008.8 |
| 20260505233358 | 40 | 226 | 0.0 | 0.0 | 0.00 | 0.21 | 0.00 | 95 | 1008.7 |
| 20260505230359 | 41 | 145 | 0.0 | 0.0 | 0.00 | 0.21 | 0.00 | 95 | 1008.7 |
| 20260505223359 | 41 | 169 | 0.0 | 0.0 | 0.00 | 0.21 | 0.00 | 94 | 1008.9 |
| 20260505220359 | 40 | 179 | 0.0 | 0.0 | 0.00 | 0.21 | 0.00 | 95 | 1009.0 |
| 20260505213359 | 42 | 197 | 0.0 | 0.0 | 0.00 | 0.21 | 0.00 | 95 | 1009.0 |